User: anonymous
Location: Unspecified
(0.0000°N, 0.0000°E)
Time: 15:23:00
(UTC+02:00)
Language:

ARIANE 44L R/B - Orbit

View from above orbital plane
View from above orbital plane
View from above satellite
View from above satellite

Ground track
Ground track

The orbit data is extracted from the following two-line orbital elements,

1 26901U 01039B   14229.38853747  .00008003  00000-0  19099-2 0   828
2 26901 007.3270 299.5522 6989566 024.5226 007.8179 02.65584163115271
Epoch (UTC): 17 August 2014 09:19:29
Eccentricity: 0.6989566
inclination: 7.3270°
perigee height: 252 km
apogee height: 31042 km
right ascension of ascending node: 299.5522°
argument of perigee: 24.5226°
revolutions per day: 2.65584163
mean anomaly at epoch: 7.8179°
orbit number at epoch: 11527

The dashed part of the orbit path shows where the satellite is in the earth's shadow,  

DLR